Year,Month,Day,Hour,Minute,Value (Times are PST for temperature in C)
2017,03,05,00,00,4.70
2017,03,05,00,01,4.70
2017,03,05,00,02,4.70
2017,03,05,00,03,4.60
2017,03,05,00,04,4.70
2017,03,05,00,05,4.70
2017,03,05,00,06,4.70
2017,03,05,00,07,4.70
2017,03,05,00,08,4.70
2017,03,05,00,09,4.70
2017,03,05,00,10,4.70
2017,03,05,00,11,4.70
2017,03,05,00,12,4.70
2017,03,05,00,13,4.70
2017,03,05,00,14,4.70
2017,03,05,00,15,4.70
2017,03,05,00,16,4.70
2017,03,05,00,17,4.70
2017,03,05,00,18,4.70
2017,03,05,00,19,4.70
2017,03,05,00,20,4.70
2017,03,05,00,21,4.70
2017,03,05,00,22,4.70
2017,03,05,00,23,4.70
2017,03,05,00,24,4.70
2017,03,05,00,25,4.70
2017,03,05,00,26,4.70
2017,03,05,00,27,4.70
2017,03,05,00,28,4.70
2017,03,05,00,29,4.70
2017,03,05,00,30,4.70
2017,03,05,00,31,4.70
2017,03,05,00,32,4.70
2017,03,05,00,33,4.70
2017,03,05,00,34,4.70
2017,03,05,00,35,4.70
2017,03,05,00,36,4.70
2017,03,05,00,37,4.70
2017,03,05,00,38,4.70
2017,03,05,00,39,4.80
2017,03,05,00,40,4.80
2017,03,05,00,41,4.80
2017,03,05,00,42,4.80
2017,03,05,00,43,4.80
2017,03,05,00,44,4.80
2017,03,05,00,45,4.80
2017,03,05,00,46,4.80
2017,03,05,00,47,4.80
2017,03,05,00,48,4.80
2017,03,05,00,49,4.80
2017,03,05,00,50,4.80
2017,03,05,00,51,4.70
2017,03,05,00,52,4.80
2017,03,05,00,53,4.80
2017,03,05,00,54,4.80
2017,03,05,00,55,4.80
2017,03,05,00,56,4.80
2017,03,05,00,57,4.80
2017,03,05,00,58,4.80
2017,03,05,00,59,4.80
2017,03,05,01,00,4.80
2017,03,05,01,01,4.80
2017,03,05,01,02,4.80
2017,03,05,01,03,4.80
2017,03,05,01,04,4.80
2017,03,05,01,05,4.80
2017,03,05,01,06,4.80
2017,03,05,01,07,4.80
2017,03,05,01,08,4.80
2017,03,05,01,09,4.80
2017,03,05,01,10,4.90
2017,03,05,01,11,4.90
2017,03,05,01,12,4.90
2017,03,05,01,13,4.90
2017,03,05,01,14,4.90
2017,03,05,01,15,4.90
2017,03,05,01,16,4.90
2017,03,05,01,17,4.90
2017,03,05,01,18,4.90
2017,03,05,01,19,4.90
2017,03,05,01,20,4.90
2017,03,05,01,21,4.90
2017,03,05,01,22,4.90
2017,03,05,01,23,4.90
2017,03,05,01,24,4.80
2017,03,05,01,25,4.80
2017,03,05,01,26,4.80
2017,03,05,01,27,4.80
2017,03,05,01,28,4.80
2017,03,05,01,29,4.80
2017,03,05,01,30,4.80
2017,03,05,01,31,4.70
2017,03,05,01,32,4.70
2017,03,05,01,33,4.70
2017,03,05,01,34,4.70
2017,03,05,01,35,4.70
2017,03,05,01,36,4.60
2017,03,05,01,37,4.60
2017,03,05,01,38,4.60
2017,03,05,01,39,4.60
2017,03,05,01,40,4.50
2017,03,05,01,41,4.50
2017,03,05,01,42,4.40
2017,03,05,01,43,4.40
2017,03,05,01,44,4.40
2017,03,05,01,45,4.40
2017,03,05,01,46,4.30
2017,03,05,01,47,4.30
2017,03,05,01,48,4.30
2017,03,05,01,49,4.30
2017,03,05,01,50,4.30
2017,03,05,01,51,4.30
2017,03,05,01,52,4.30
2017,03,05,01,53,4.20
2017,03,05,01,54,4.20
2017,03,05,01,55,4.20
2017,03,05,01,56,4.20
2017,03,05,01,57,4.10
2017,03,05,01,58,4.10
2017,03,05,01,59,4.10
2017,03,05,02,00,4.10
2017,03,05,02,01,4.00
2017,03,05,02,02,4.00
2017,03,05,02,03,4.00
2017,03,05,02,04,3.90
2017,03,05,02,05,3.90
2017,03,05,02,06,3.80
2017,03,05,02,07,3.80
2017,03,05,02,08,3.80
2017,03,05,02,09,3.80
2017,03,05,02,10,3.80
2017,03,05,02,11,3.80
2017,03,05,02,12,3.80
2017,03,05,02,13,3.80
2017,03,05,02,14,3.70
2017,03,05,02,15,3.70
2017,03,05,02,16,3.70
2017,03,05,02,17,3.70
2017,03,05,02,18,3.60
2017,03,05,02,19,3.60
2017,03,05,02,20,3.60
2017,03,05,02,21,3.50
2017,03,05,02,22,3.40
2017,03,05,02,23,3.40
2017,03,05,02,24,3.30
2017,03,05,02,25,3.20
2017,03,05,02,26,3.10
2017,03,05,02,27,3.00
2017,03,05,02,28,2.90
2017,03,05,02,29,2.80
2017,03,05,02,30,2.60
2017,03,05,02,31,2.50
2017,03,05,02,32,2.30
2017,03,05,02,33,2.20
2017,03,05,02,34,2.10
2017,03,05,02,35,2.00
2017,03,05,02,36,1.90
2017,03,05,02,37,1.70
2017,03,05,02,38,1.60
2017,03,05,02,39,1.50
2017,03,05,02,40,1.50
2017,03,05,02,41,1.40
2017,03,05,02,42,1.30
2017,03,05,02,43,1.30
2017,03,05,02,44,1.20
2017,03,05,02,45,1.20
2017,03,05,02,46,1.10
2017,03,05,02,47,1.10
2017,03,05,02,48,1.10
2017,03,05,02,49,1.00
2017,03,05,02,50,1.00
2017,03,05,02,51,1.00
2017,03,05,02,52,1.00
2017,03,05,02,53,1.00
2017,03,05,02,54,1.00
2017,03,05,02,55,1.00
2017,03,05,02,56,1.00
2017,03,05,02,57,1.00
2017,03,05,02,58,1.00
2017,03,05,02,59,1.00
2017,03,05,03,00,1.00
2017,03,05,03,01,1.00
2017,03,05,03,02,1.00
2017,03,05,03,03,1.00
2017,03,05,03,04,1.00
2017,03,05,03,05,1.00
2017,03,05,03,06,1.00
2017,03,05,03,07,1.00
2017,03,05,03,08,1.00
2017,03,05,03,09,1.00
2017,03,05,03,10,0.90
2017,03,05,03,11,0.90
2017,03,05,03,12,0.90
2017,03,05,03,13,0.90
2017,03,05,03,14,0.90
2017,03,05,03,15,0.90
2017,03,05,03,16,0.90
2017,03,05,03,17,0.90
2017,03,05,03,18,0.90
2017,03,05,03,19,0.90
2017,03,05,03,20,0.90
2017,03,05,03,21,0.90
2017,03,05,03,22,0.90
2017,03,05,03,23,0.90
2017,03,05,03,24,0.90
2017,03,05,03,25,0.90
2017,03,05,03,26,0.90
2017,03,05,03,27,0.90
2017,03,05,03,28,0.90
2017,03,05,03,29,0.90
2017,03,05,03,30,0.90
2017,03,05,03,31,0.90
2017,03,05,03,32,0.90
2017,03,05,03,33,0.90
2017,03,05,03,34,0.90
2017,03,05,03,35,0.90
2017,03,05,03,36,0.90
2017,03,05,03,37,0.90
2017,03,05,03,38,0.90
2017,03,05,03,39,0.90
2017,03,05,03,40,0.90
2017,03,05,03,41,0.90
2017,03,05,03,42,0.90
2017,03,05,03,43,0.90
2017,03,05,03,44,0.90
2017,03,05,03,45,0.90
2017,03,05,03,46,0.90
2017,03,05,03,47,0.90
2017,03,05,03,48,1.00
2017,03,05,03,49,1.00
2017,03,05,03,50,1.00
2017,03,05,03,51,0.90
2017,03,05,03,52,0.90
2017,03,05,03,53,0.90
2017,03,05,03,54,0.90
2017,03,05,03,55,0.90
2017,03,05,03,56,0.90
2017,03,05,03,57,0.90
2017,03,05,03,58,0.90
2017,03,05,03,59,0.90
2017,03,05,04,00,0.90
2017,03,05,04,01,0.90
2017,03,05,04,02,0.90
2017,03,05,04,03,0.90
2017,03,05,05,04,1.00
2017,03,05,05,05,1.00
2017,03,05,05,06,0.90
2017,03,05,05,07,1.00
2017,03,05,05,08,1.00
2017,03,05,05,09,1.00
2017,03,05,05,10,1.00
2017,03,05,05,11,1.00
2017,03,05,05,12,1.00
2017,03,05,05,13,1.00
2017,03,05,05,14,1.00
2017,03,05,05,15,1.00
2017,03,05,05,16,1.00
2017,03,05,05,17,1.00
2017,03,05,05,18,1.00
2017,03,05,05,19,1.00
2017,03,05,05,20,1.00
2017,03,05,05,21,1.00
2017,03,05,05,22,1.00
2017,03,05,05,23,1.00
2017,03,05,05,24,1.00
2017,03,05,05,25,1.00
2017,03,05,05,26,1.00
2017,03,05,05,27,1.00
2017,03,05,05,28,1.00
2017,03,05,05,29,1.10
2017,03,05,05,30,1.10
2017,03,05,05,31,1.10
2017,03,05,05,32,1.10
2017,03,05,05,33,1.10
2017,03,05,05,34,1.10
2017,03,05,05,35,1.10
2017,03,05,05,36,1.10
2017,03,05,05,37,1.10
2017,03,05,05,38,1.10
2017,03,05,05,39,1.10
2017,03,05,05,40,1.10
2017,03,05,05,41,1.10
2017,03,05,05,42,1.10
2017,03,05,05,43,1.10
2017,03,05,05,44,1.00
2017,03,05,05,45,1.00
2017,03,05,05,46,1.00
2017,03,05,05,47,1.00
2017,03,05,05,48,1.00
2017,03,05,05,49,1.00
2017,03,05,05,50,1.00
2017,03,05,05,51,1.00
2017,03,05,05,52,1.00
2017,03,05,05,53,1.00
2017,03,05,05,54,1.00
2017,03,05,05,55,1.00
2017,03,05,05,56,1.00
2017,03,05,05,57,1.00
2017,03,05,05,58,1.00
2017,03,05,05,59,1.00
2017,03,05,06,00,1.00
2017,03,05,06,01,1.00
2017,03,05,06,02,1.00
2017,03,05,06,03,1.00
2017,03,05,06,04,1.00
2017,03,05,06,05,1.10
2017,03,05,06,06,1.10
2017,03,05,06,07,1.10
2017,03,05,06,08,1.10
2017,03,05,06,09,1.10
2017,03,05,06,10,1.10
2017,03,05,06,11,1.10
2017,03,05,06,12,1.10
2017,03,05,06,13,1.10
2017,03,05,06,14,1.10
2017,03,05,06,15,1.10
2017,03,05,06,16,1.10
2017,03,05,06,17,1.10
2017,03,05,06,18,1.10
2017,03,05,06,19,1.10
2017,03,05,06,20,1.10
2017,03,05,06,21,1.10
2017,03,05,06,22,1.10
2017,03,05,06,23,1.10
2017,03,05,06,24,1.10
2017,03,05,06,25,1.10
2017,03,05,06,26,1.20
2017,03,05,06,27,1.10
2017,03,05,06,28,1.20
2017,03,05,06,29,1.20
2017,03,05,06,30,1.20
2017,03,05,06,31,1.20
2017,03,05,06,32,1.20
2017,03,05,06,33,1.20
2017,03,05,06,34,1.20
2017,03,05,06,35,1.20
2017,03,05,06,36,1.20
2017,03,05,06,37,1.20
2017,03,05,06,38,1.20
2017,03,05,06,39,1.20
2017,03,05,06,40,1.20
2017,03,05,06,41,1.20
2017,03,05,06,42,1.20
2017,03,05,06,43,1.20
2017,03,05,06,44,1.20
2017,03,05,06,45,1.20
2017,03,05,06,46,1.20
2017,03,05,06,47,1.20
2017,03,05,06,48,1.20
2017,03,05,06,49,1.20
2017,03,05,06,50,1.20
2017,03,05,06,51,1.20
2017,03,05,06,52,1.20
2017,03,05,06,53,1.20
2017,03,05,06,54,1.20
2017,03,05,06,55,1.20
2017,03,05,06,56,1.20
2017,03,05,06,57,1.20
2017,03,05,06,58,1.20
2017,03,05,06,59,1.20
2017,03,05,07,00,1.20
2017,03,05,07,01,1.20
2017,03,05,07,02,1.20
2017,03,05,07,52,1.40
2017,03,05,07,53,1.40
2017,03,05,07,54,1.40
2017,03,05,07,55,1.50
2017,03,05,07,56,1.50
2017,03,05,07,57,1.50
2017,03,05,07,58,1.50
2017,03,05,07,59,1.50
2017,03,05,08,00,1.50
2017,03,05,08,01,1.50
2017,03,05,08,02,1.50
2017,03,05,08,03,1.60
2017,03,05,08,04,1.60
2017,03,05,08,05,1.60
2017,03,05,08,06,1.60
2017,03,05,08,07,1.60
2017,03,05,08,08,1.60
2017,03,05,08,09,1.70
2017,03,05,08,10,1.70
2017,03,05,08,11,1.70
2017,03,05,08,12,1.70
2017,03,05,08,13,1.70
2017,03,05,08,14,1.70
2017,03,05,08,15,1.70
2017,03,05,08,16,1.70
2017,03,05,08,17,1.70
2017,03,05,08,18,1.80
2017,03,05,08,19,1.80
2017,03,05,08,20,1.80
2017,03,05,08,21,1.80
2017,03,05,08,22,1.80
2017,03,05,08,23,1.80
2017,03,05,08,24,1.80
2017,03,05,08,25,1.80
2017,03,05,08,26,1.80
2017,03,05,08,27,1.90
2017,03,05,08,28,1.90
2017,03,05,08,29,1.90
2017,03,05,08,30,1.90
2017,03,05,08,31,1.90
2017,03,05,08,32,2.00
2017,03,05,08,33,2.00
2017,03,05,08,34,2.00
2017,03,05,08,35,2.00
2017,03,05,08,36,2.00
2017,03,05,08,37,2.00
2017,03,05,08,38,2.10
2017,03,05,08,39,2.10
2017,03,05,08,40,2.10
2017,03,05,08,41,2.10
2017,03,05,08,42,2.20
2017,03,05,08,43,2.20
2017,03,05,08,44,2.20
2017,03,05,08,45,2.30
2017,03,05,08,46,2.30
2017,03,05,08,47,2.30
2017,03,05,08,48,2.30
2017,03,05,08,49,2.30
2017,03,05,08,50,2.30
2017,03,05,08,51,2.30
2017,03,05,08,52,2.30
2017,03,05,08,53,2.30
2017,03,05,08,54,2.30
2017,03,05,08,55,2.30
2017,03,05,08,56,2.30
2017,03,05,08,57,2.30
2017,03,05,08,58,2.30
2017,03,05,08,59,2.30
2017,03,05,09,00,2.30
2017,03,05,09,01,2.40
2017,03,05,09,02,2.40
2017,03,05,09,03,2.40
2017,03,05,09,04,2.40
2017,03,05,09,05,2.40
2017,03,05,09,06,2.40
2017,03,05,09,07,2.40
2017,03,05,09,08,2.30
2017,03,05,09,09,2.30
2017,03,05,09,10,2.30
2017,03,05,09,11,2.30
2017,03,05,09,12,2.30
2017,03,05,09,13,2.30
2017,03,05,09,14,2.30
2017,03,05,09,15,2.30
2017,03,05,09,16,2.40
2017,03,05,09,17,2.40
2017,03,05,09,18,2.40
2017,03,05,09,19,2.40
2017,03,05,09,20,2.40
2017,03,05,09,21,2.40
2017,03,05,09,22,2.40
2017,03,05,09,23,2.40
2017,03,05,09,24,2.40
2017,03,05,09,25,2.40
2017,03,05,09,26,2.40
2017,03,05,09,27,2.40
2017,03,05,09,28,2.40
2017,03,05,09,29,2.40
2017,03,05,09,30,2.40
2017,03,05,09,31,2.40
2017,03,05,09,32,2.40
2017,03,05,09,33,2.40
2017,03,05,09,34,2.40
2017,03,05,09,35,2.40
2017,03,05,09,36,2.40
2017,03,05,09,37,2.40
2017,03,05,09,38,2.40
2017,03,05,09,39,2.40
2017,03,05,09,40,2.40
2017,03,05,09,41,2.40
2017,03,05,09,42,2.40
2017,03,05,09,43,2.40
2017,03,05,09,44,2.40
2017,03,05,09,45,2.40
2017,03,05,09,46,2.40
2017,03,05,09,47,2.40
2017,03,05,09,48,2.40
2017,03,05,09,49,2.40
2017,03,05,09,50,2.40
2017,03,05,09,51,2.40
2017,03,05,09,52,2.40
2017,03,05,09,53,2.40
2017,03,05,09,54,2.40
2017,03,05,09,55,2.40
2017,03,05,09,56,2.40
2017,03,05,09,57,2.40
2017,03,05,09,58,2.40
2017,03,05,09,59,2.40
2017,03,05,10,00,2.40
2017,03,05,10,01,2.30
2017,03,05,10,02,2.30
2017,03,05,10,03,2.30
2017,03,05,10,04,2.30
2017,03,05,10,05,2.30
2017,03,05,10,06,2.30
2017,03,05,10,07,2.30
2017,03,05,10,08,2.30
2017,03,05,10,09,2.30
2017,03,05,10,10,2.30
2017,03,05,10,11,2.40
2017,03,05,10,12,2.40
2017,03,05,10,13,2.40
2017,03,05,10,14,2.40
2017,03,05,10,15,2.40
2017,03,05,10,16,2.40
2017,03,05,10,17,2.40
2017,03,05,10,18,2.40
2017,03,05,10,19,2.40
2017,03,05,10,20,2.40
2017,03,05,10,21,2.40
2017,03,05,10,22,2.50
2017,03,05,10,23,2.50
2017,03,05,10,24,2.50
2017,03,05,10,25,2.60
2017,03,05,10,26,2.60
2017,03,05,10,27,2.60
2017,03,05,10,28,2.60
2017,03,05,10,29,2.60
2017,03,05,10,30,2.70
2017,03,05,10,31,2.70
2017,03,05,10,32,2.70
2017,03,05,10,33,2.70
2017,03,05,10,34,2.70
2017,03,05,10,35,2.70
2017,03,05,10,36,2.70
2017,03,05,10,37,2.60
2017,03,05,10,38,2.60
2017,03,05,10,39,2.60
2017,03,05,10,40,2.60
2017,03,05,10,41,2.50
2017,03,05,10,42,2.40
2017,03,05,10,43,2.40
2017,03,05,10,44,2.40
2017,03,05,10,45,2.40
2017,03,05,10,46,2.40
2017,03,05,10,47,2.30
2017,03,05,10,48,2.40
2017,03,05,10,49,2.40
2017,03,05,10,50,2.40
2017,03,05,10,51,2.40
2017,03,05,10,52,2.40
2017,03,05,10,53,2.40
2017,03,05,10,54,2.40
2017,03,05,10,55,2.40
2017,03,05,10,56,2.40
2017,03,05,10,57,2.50
2017,03,05,10,58,2.50
2017,03,05,10,59,2.50
2017,03,05,11,00,2.50
2017,03,05,11,01,2.50
2017,03,05,11,02,2.60
2017,03,05,11,03,2.60
2017,03,05,11,04,2.60
2017,03,05,11,05,2.70
2017,03,05,11,06,2.70
2017,03,05,11,07,2.80
2017,03,05,11,08,2.80
2017,03,05,11,09,2.80
2017,03,05,11,10,2.80
2017,03,05,11,11,2.90
2017,03,05,11,12,2.90
2017,03,05,11,13,2.90
2017,03,05,11,14,2.90
2017,03,05,11,15,2.90
2017,03,05,11,16,2.90
2017,03,05,11,17,2.90
2017,03,05,11,18,3.00
2017,03,05,11,19,3.00
2017,03,05,11,20,3.10
2017,03,05,11,21,3.20
2017,03,05,11,22,3.20
2017,03,05,11,23,3.30
2017,03,05,11,24,3.30
2017,03,05,11,25,3.30
2017,03,05,11,26,3.40
2017,03,05,11,27,3.40
2017,03,05,11,28,3.50
2017,03,05,11,29,3.50
2017,03,05,11,30,3.60
2017,03,05,11,31,3.60
2017,03,05,11,32,3.60
2017,03,05,11,33,3.60
2017,03,05,11,34,3.60
2017,03,05,11,35,3.70
2017,03,05,11,36,3.70
2017,03,05,11,37,3.70
2017,03,05,11,38,3.70
2017,03,05,11,39,3.70
2017,03,05,11,40,3.80
2017,03,05,11,41,3.80
2017,03,05,11,42,3.90
2017,03,05,11,43,3.90
2017,03,05,11,44,4.00
2017,03,05,11,45,4.00
2017,03,05,11,46,4.00
2017,03,05,11,47,4.10
2017,03,05,11,48,4.10
2017,03,05,11,49,4.10
2017,03,05,11,50,4.20
2017,03,05,11,51,4.20
2017,03,05,11,52,4.20
2017,03,05,11,53,4.20
2017,03,05,11,54,4.20
2017,03,05,11,55,4.20
2017,03,05,11,56,4.20
2017,03,05,11,57,4.20
2017,03,05,11,58,4.20
2017,03,05,11,59,4.20
2017,03,05,12,00,4.20
2017,03,05,12,01,4.20
2017,03,05,12,02,4.20
2017,03,05,12,03,4.20
2017,03,05,12,04,4.20
2017,03,05,12,05,4.30
2017,03,05,12,06,4.30
2017,03,05,12,07,4.30
2017,03,05,12,08,4.30
2017,03,05,12,09,4.30
2017,03,05,12,10,4.30
2017,03,05,12,11,4.40
2017,03,05,12,12,4.40
2017,03,05,12,13,4.40
2017,03,05,12,14,4.40
2017,03,05,12,15,4.50
2017,03,05,12,16,4.50
2017,03,05,12,17,4.60
2017,03,05,12,18,4.60
2017,03,05,12,19,4.60
2017,03,05,12,20,4.50
2017,03,05,12,21,4.50
2017,03,05,12,22,4.40
2017,03,05,12,23,4.40
2017,03,05,12,24,4.40
2017,03,05,12,25,4.40
2017,03,05,12,26,4.40
2017,03,05,12,27,4.50
2017,03,05,12,28,4.50
2017,03,05,12,29,4.50
2017,03,05,12,30,4.60
2017,03,05,12,31,4.60
2017,03,05,12,32,4.60
2017,03,05,12,33,4.60
2017,03,05,12,34,4.70
2017,03,05,12,35,4.60
2017,03,05,12,36,4.70
2017,03,05,12,37,4.70
2017,03,05,12,38,4.70
2017,03,05,12,39,4.70
2017,03,05,12,40,4.70
2017,03,05,12,41,4.70
2017,03,05,12,42,4.70
2017,03,05,12,43,4.80
2017,03,05,12,44,4.80
2017,03,05,12,45,4.80
2017,03,05,12,46,4.80
2017,03,05,12,47,4.90
2017,03,05,12,48,4.90
2017,03,05,12,49,4.90
2017,03,05,12,50,5.00
2017,03,05,12,51,5.00
2017,03,05,12,52,5.00
2017,03,05,12,53,5.00
2017,03,05,12,54,5.00
2017,03,05,12,55,5.00
2017,03,05,12,56,5.00
2017,03,05,12,57,5.10
2017,03,05,12,58,5.20
2017,03,05,12,59,5.40
2017,03,05,13,00,5.50
2017,03,05,13,01,5.60
2017,03,05,13,02,5.70
2017,03,05,13,03,5.80
2017,03,05,13,04,5.80
2017,03,05,13,05,5.80
2017,03,05,13,06,5.80
2017,03,05,13,07,5.90
2017,03,05,13,08,6.00
2017,03,05,13,09,6.00
2017,03,05,13,10,6.10
2017,03,05,13,11,6.20
2017,03,05,13,12,6.10
2017,03,05,13,13,6.10
2017,03,05,13,14,6.10
2017,03,05,13,15,6.10
2017,03,05,13,16,6.10
2017,03,05,13,17,6.10
2017,03,05,13,18,6.10
2017,03,05,13,19,6.10
2017,03,05,13,20,6.10
2017,03,05,13,21,6.00
2017,03,05,13,22,6.00
2017,03,05,13,23,6.00
2017,03,05,13,24,6.00
2017,03,05,13,25,6.00
2017,03,05,13,26,6.10
2017,03,05,13,27,6.10
2017,03,05,13,28,6.10
2017,03,05,13,29,6.20
2017,03,05,13,30,6.20
2017,03,05,13,31,6.10
2017,03,05,13,32,6.10
2017,03,05,13,33,6.10
2017,03,05,13,34,6.10
2017,03,05,13,35,6.10
2017,03,05,13,36,6.10
2017,03,05,13,37,6.00
2017,03,05,13,38,6.00
2017,03,05,13,39,6.00
2017,03,05,13,40,6.00
2017,03,05,13,41,6.10
2017,03,05,13,42,6.10
2017,03,05,13,43,6.20
2017,03,05,13,44,6.20
2017,03,05,13,45,6.30
2017,03,05,13,46,6.40
2017,03,05,13,47,6.50
2017,03,05,13,48,6.50
2017,03,05,13,49,6.60
2017,03,05,13,50,6.60
2017,03,05,13,51,6.50
2017,03,05,13,52,6.50
2017,03,05,13,53,6.50
2017,03,05,13,54,6.50
2017,03,05,13,55,6.50
2017,03,05,13,56,6.60
2017,03,05,13,57,6.60
2017,03,05,13,58,6.60
2017,03,05,13,59,6.60
2017,03,05,14,00,6.60
2017,03,05,14,01,6.70
2017,03,05,14,02,6.70
2017,03,05,14,03,6.70
2017,03,05,14,04,6.70
2017,03,05,14,05,6.60
2017,03,05,14,06,6.60
2017,03,05,14,07,6.50
2017,03,05,14,08,6.50
2017,03,05,14,09,6.50
2017,03,05,14,10,6.40
2017,03,05,14,11,6.40
2017,03,05,14,12,6.40
2017,03,05,14,13,6.40
2017,03,05,14,14,6.40
2017,03,05,14,15,6.30
2017,03,05,14,16,6.30
2017,03,05,14,17,6.30
2017,03,05,14,18,6.20
2017,03,05,14,19,6.20
2017,03,05,14,20,6.20
2017,03,05,14,21,6.10
2017,03,05,14,22,6.10
2017,03,05,14,23,6.00
2017,03,05,14,24,6.00
2017,03,05,14,25,6.00
2017,03,05,14,26,6.10
2017,03,05,14,27,6.10
2017,03,05,14,28,6.10
2017,03,05,14,29,6.10
2017,03,05,14,30,6.10
2017,03,05,14,31,6.10
2017,03,05,14,32,6.10
2017,03,05,14,33,6.10
2017,03,05,14,34,6.10
2017,03,05,14,35,6.10
2017,03,05,14,36,6.10
2017,03,05,14,37,6.10
2017,03,05,14,38,6.10
2017,03,05,14,39,6.10
2017,03,05,14,40,6.10
2017,03,05,14,41,6.10
2017,03,05,14,42,6.10
2017,03,05,14,43,6.10
2017,03,05,14,44,6.00
2017,03,05,14,45,6.00
2017,03,05,14,46,6.00
2017,03,05,14,47,6.00
2017,03,05,14,48,6.10
2017,03,05,14,49,6.10
2017,03,05,14,50,6.00
2017,03,05,14,51,6.00
2017,03,05,14,52,6.00
2017,03,05,14,53,5.90
2017,03,05,14,54,5.90
2017,03,05,14,55,5.90
2017,03,05,14,56,5.90
2017,03,05,14,57,5.90
2017,03,05,14,58,5.90
2017,03,05,14,59,5.90
2017,03,05,15,00,5.80
2017,03,05,15,01,5.80
2017,03,05,15,02,5.80
2017,03,05,15,03,5.70
2017,03,05,15,04,5.70
2017,03,05,15,05,5.70
2017,03,05,15,06,5.60
2017,03,05,15,07,5.60
2017,03,05,15,08,5.50
2017,03,05,15,09,5.40
2017,03,05,15,10,5.40
2017,03,05,15,11,5.30
2017,03,05,15,12,5.30
2017,03,05,15,13,5.20
2017,03,05,15,14,5.20
2017,03,05,15,15,5.20
2017,03,05,15,16,5.20
2017,03,05,15,17,5.20
2017,03,05,15,18,5.10
2017,03,05,15,19,5.10
2017,03,05,15,20,5.10
2017,03,05,15,21,5.00
2017,03,05,15,22,5.00
2017,03,05,15,23,5.00
2017,03,05,15,24,5.00
2017,03,05,15,25,5.00
2017,03,05,15,26,4.90
2017,03,05,15,27,4.90
2017,03,05,15,28,4.90
2017,03,05,15,29,4.80
2017,03,05,15,30,4.80
2017,03,05,15,31,4.80
2017,03,05,15,32,4.80
2017,03,05,15,33,4.80
2017,03,05,15,34,4.80
2017,03,05,15,35,4.80
2017,03,05,15,36,4.80
2017,03,05,15,37,4.70
2017,03,05,15,38,4.70
2017,03,05,15,39,4.70
2017,03,05,15,40,4.80
2017,03,05,15,41,4.80
2017,03,05,15,42,4.80
2017,03,05,15,43,4.80
2017,03,05,15,44,4.90
2017,03,05,15,45,4.90
2017,03,05,15,46,4.90
2017,03,05,15,47,4.90
2017,03,05,15,48,4.90
2017,03,05,15,49,4.90
2017,03,05,15,50,4.90
2017,03,05,15,51,4.90
2017,03,05,15,52,4.90
2017,03,05,15,53,4.90
2017,03,05,15,54,4.80
2017,03,05,15,55,4.80
2017,03,05,15,56,4.80
2017,03,05,15,57,4.70
2017,03,05,15,58,4.70
2017,03,05,15,59,4.70
2017,03,05,16,00,4.70
2017,03,05,16,01,4.60
2017,03,05,16,02,4.60
2017,03,05,16,03,4.60
2017,03,05,16,04,4.60
2017,03,05,16,05,4.60
2017,03,05,16,06,4.60
2017,03,05,16,07,4.60
2017,03,05,16,08,4.60
2017,03,05,16,09,4.60
2017,03,05,16,10,4.70
2017,03,05,16,11,4.70
2017,03,05,16,12,4.70
2017,03,05,16,13,4.70
2017,03,05,16,14,4.70
2017,03,05,16,15,4.70
2017,03,05,16,16,4.70
2017,03,05,16,17,4.70
2017,03,05,16,18,4.70
2017,03,05,16,19,4.70
2017,03,05,16,20,4.70
2017,03,05,16,21,4.70
2017,03,05,16,22,4.70
2017,03,05,16,23,4.70
2017,03,05,16,24,4.70
2017,03,05,16,25,4.80
2017,03,05,16,26,4.80
2017,03,05,16,27,4.80
2017,03,05,16,28,4.80
2017,03,05,16,29,4.70
2017,03,05,16,30,4.70
2017,03,05,16,31,4.70
2017,03,05,16,32,4.80
2017,03,05,16,33,4.80
2017,03,05,16,34,4.80
2017,03,05,16,35,4.80
2017,03,05,16,36,4.80
2017,03,05,16,37,4.80
2017,03,05,16,38,4.80
2017,03,05,16,39,4.80
2017,03,05,16,40,4.80
2017,03,05,16,41,4.80
2017,03,05,16,42,4.80
2017,03,05,16,43,4.80
2017,03,05,16,44,4.80
2017,03,05,16,45,4.80
2017,03,05,16,46,4.80
2017,03,05,16,47,4.80
2017,03,05,16,48,4.80
2017,03,05,16,49,4.80
2017,03,05,16,50,4.70
2017,03,05,16,51,4.70
2017,03,05,16,52,4.70
2017,03,05,16,53,4.70
2017,03,05,16,54,4.70
2017,03,05,16,55,4.60
2017,03,05,16,56,4.60
2017,03,05,16,57,4.60
2017,03,05,16,58,4.60
2017,03,05,16,59,4.60
2017,03,05,17,00,4.50
2017,03,05,17,01,4.50
2017,03,05,17,02,4.50
2017,03,05,17,03,4.50
2017,03,05,17,04,4.50
2017,03,05,17,05,4.50
2017,03,05,17,06,4.50
2017,03,05,17,07,4.50
2017,03,05,17,08,4.50
2017,03,05,17,09,4.50
2017,03,05,17,10,4.50
2017,03,05,17,11,4.50
2017,03,05,17,12,4.50
2017,03,05,17,13,4.50
2017,03,05,17,14,4.50
2017,03,05,17,15,4.50
2017,03,05,17,16,4.50
2017,03,05,17,17,4.40
2017,03,05,17,18,4.40
2017,03,05,17,19,4.40
2017,03,05,17,20,4.40
2017,03,05,17,21,4.40
2017,03,05,17,22,4.40
2017,03,05,17,23,4.40
2017,03,05,17,24,4.40
2017,03,05,17,25,4.40
2017,03,05,17,26,4.40
2017,03,05,17,27,4.40
2017,03,05,17,28,4.40
2017,03,05,17,29,4.30
2017,03,05,17,30,4.30
2017,03,05,17,31,4.30
2017,03,05,17,32,4.30
2017,03,05,17,33,4.30
2017,03,05,17,34,4.30
2017,03,05,17,35,4.30
2017,03,05,17,36,4.30
2017,03,05,17,37,4.20
2017,03,05,17,38,4.20
2017,03,05,17,39,4.20
2017,03,05,17,40,4.20
2017,03,05,17,41,4.20
2017,03,05,17,42,4.20
2017,03,05,17,43,4.20
2017,03,05,17,44,4.20
2017,03,05,17,45,4.20
2017,03,05,17,46,4.10
2017,03,05,17,47,4.10
2017,03,05,17,48,4.10
2017,03,05,17,49,4.10
2017,03,05,17,50,4.00
2017,03,05,17,51,4.00
2017,03,05,17,52,4.00
2017,03,05,17,53,4.00
2017,03,05,17,54,4.00
2017,03,05,17,55,4.00
2017,03,05,17,56,4.00
2017,03,05,17,57,4.00
2017,03,05,17,58,4.00
2017,03,05,17,59,3.90
2017,03,05,18,00,3.90
2017,03,05,18,01,3.90
2017,03,05,18,02,3.90
2017,03,05,18,03,3.90
2017,03,05,18,04,3.90
2017,03,05,18,05,3.90
2017,03,05,18,06,3.90
2017,03,05,18,07,3.90
2017,03,05,18,08,3.90
2017,03,05,18,09,3.90
2017,03,05,18,10,3.90
2017,03,05,18,11,3.90
2017,03,05,18,12,3.90
2017,03,05,18,13,3.90
2017,03,05,18,14,3.90
2017,03,05,18,15,3.90
2017,03,05,18,16,3.90
2017,03,05,18,17,3.90
2017,03,05,18,18,3.90
2017,03,05,18,19,3.90
2017,03,05,18,20,3.90
2017,03,05,18,21,3.80
2017,03,05,18,22,3.80
2017,03,05,18,23,3.80
2017,03,05,18,24,3.80
2017,03,05,18,25,3.80
2017,03,05,18,26,3.80
2017,03,05,18,27,3.80
2017,03,05,18,28,3.80
2017,03,05,18,29,3.80
2017,03,05,18,30,3.80
2017,03,05,18,31,3.80
2017,03,05,18,32,3.80
2017,03,05,18,33,3.80
2017,03,05,18,34,3.80
2017,03,05,18,35,3.80
2017,03,05,18,36,3.70
2017,03,05,18,37,3.70
2017,03,05,18,38,3.70
2017,03,05,18,39,3.70
2017,03,05,18,40,3.70
2017,03,05,18,41,3.70
2017,03,05,18,42,3.70
2017,03,05,18,43,3.70
2017,03,05,18,44,3.70
2017,03,05,18,45,3.70
2017,03,05,18,46,3.60
2017,03,05,18,47,3.60
2017,03,05,18,48,3.60
2017,03,05,18,49,3.60
2017,03,05,18,50,3.60
2017,03,05,18,51,3.60
2017,03,05,18,52,3.60
2017,03,05,18,53,3.60
2017,03,05,18,54,3.60
2017,03,05,18,55,3.60
2017,03,05,18,56,3.60
2017,03,05,18,57,3.60
2017,03,05,18,58,3.60
2017,03,05,18,59,3.60
2017,03,05,19,00,3.60
2017,03,05,19,01,3.60
2017,03,05,19,02,3.60
2017,03,05,19,03,3.60
2017,03,05,19,04,3.60
2017,03,05,19,05,3.60
2017,03,05,19,06,3.60
2017,03,05,19,07,3.60
2017,03,05,19,08,3.60
2017,03,05,19,09,3.70
2017,03,05,19,10,3.70
2017,03,05,19,11,3.70
2017,03,05,19,12,3.70
2017,03,05,19,13,3.70
2017,03,05,19,14,3.70
2017,03,05,19,15,3.70
2017,03,05,19,16,3.70
2017,03,05,19,17,3.70
2017,03,05,19,18,3.70
2017,03,05,19,19,3.70
2017,03,05,19,20,3.60
2017,03,05,19,21,3.60
2017,03,05,19,22,3.60
2017,03,05,19,23,3.60
2017,03,05,19,24,3.50
2017,03,05,19,25,3.50
2017,03,05,19,26,3.40
2017,03,05,19,27,3.40
2017,03,05,19,28,3.40
2017,03,05,19,29,3.30
2017,03,05,19,30,3.30
2017,03,05,19,31,3.30
2017,03,05,19,32,3.30
2017,03,05,19,33,3.30
2017,03,05,19,34,3.30
2017,03,05,19,35,3.20
2017,03,05,19,36,3.20
2017,03,05,19,37,3.20
2017,03,05,19,38,3.20
2017,03,05,19,39,3.20
2017,03,05,19,40,3.20
2017,03,05,19,41,3.10
2017,03,05,19,42,3.10
2017,03,05,19,43,3.10
2017,03,05,19,44,3.10
2017,03,05,19,45,3.00
2017,03,05,19,46,3.00
2017,03,05,19,47,3.00
2017,03,05,19,48,3.00
2017,03,05,19,49,2.90
2017,03,05,19,50,2.90
2017,03,05,19,51,2.90
2017,03,05,19,52,2.90
2017,03,05,19,53,2.90
2017,03,05,19,54,2.90
2017,03,05,19,55,2.80